2015 Bogus Ridge Weather Meteorological Hourly Data (Summary),,,,,,,,
,,,,,,,,
Dataset Reference Format:,,,,,,,,
,"[Year of data collection] Meteorological data from Dry Creek Experimental Watershed. Watershed Process Research Group, Boise State University",,,,,,,
, URL: earth.boisestate.edu/drycreek. Multi-paged. [month and day of data download].,,,,,,,
,,,,,,,,
Dataset Header Description,,,,,,,,
,Column.Variable-units| Description,,,,,,,
,1. DateTime| Time stamp of variable collection time [MM/DD/YY  hr:mm],,,,,,,
,2. Precipitation-mm| Cumulative Shielded Rain gage Depth [mm],,,,,,,
,"3. AirTemperature-C| Air Temperature at 2m above ground, Averaged [C]",,,,,,,
,"4. SolarRadiation-Watts/m2| Solar Radiation, Averaged [Watts/m2]",,,,,,,
,"5. Net Radiation-Watts/m2| Net Radiation, Averaged [Watts/m2]",,,,,,,
,"6. Relative Humidity-%| Relative Humidity at 2m above ground , Averaged [%]",,,,,,,
,7. Wind Direction-Degree| Mean Resultant Wind Direction at 2m above ground [Degree],,,,,,,
,"8. Wind Speed-m/s| Wind Speed at 2m above ground, Averaged [m/s]",,,,,,,
,"9.Snow Depth-cm| Filtered depth of snow above ground, Instantaneous [cm]",,,,,,,
,Note: -6999 denotes missing data,,,,,,,
,,,,,,,,
DateTime,Precipitation-mm,AirTemperature-C,SolarRadiation-Watts/m2,NetRadiation-Watts/m2,RelativeHumidity-%,WindDirection-Degree,WindSpeed-m/s,SnowDepth-cm
1/1/2015 0:00,0,-6.3,0,1.49,79.05,22.7,2.12,98.5
1/1/2015 1:00,0,-7.3,0,-4.6,76.6,26.2,1.67,98.46
1/1/2015 2:00,0,-8.2,0,-6.21,79.66,36.5,1.29,98.41
1/1/2015 3:00,0,-6.6,0,-11.28,79.32,22.8,1.19,98.35
1/1/2015 4:00,0,-5.3,0,-26.41,76.47,16.5,1.48,98.29
1/1/2015 5:00,0,-4.7,0,-45.08,74.83,20.8,1.78,98.22
1/1/2015 6:00,0,-4.8,0,-60.77,73.99,21.7,1.48,98.16
1/1/2015 7:00,0,-5,0,-73.06,71.94,17.4,1.73,98.08
1/1/2015 8:00,0,-4.2,0,-77.01,69.19,13.5,1.99,98.01
1/1/2015 9:00,0,-3.8,11.8,-75.35,67.36,18.9,2.23,97.93
1/1/2015 10:00,0,-3.9,141.7,-21,64.21,359.7,1.55,97.85
1/1/2015 11:00,0,-6.2,325.1,77.6,64.54,335.5,3.13,97.76
1/1/2015 12:00,0,-5.8,433.1,81.6,55.89,343.6,3.59,97.67
1/1/2015 13:00,0,-5.2,476.2,81.7,49.56,354.9,3.66,97.56
1/1/2015 14:00,0,-6.7,460.6,68.4,56.97,352.7,3.57,97.43
1/1/2015 15:00,0,-8.1,386.1,64.3,54.22,349.2,4.31,97.3
1/1/2015 16:00,0,-9.6,79.38,-49.74,54.76,347.9,5.2,97.18
1/1/2015 17:00,0,-10,35.63,-64.84,59.58,342.4,3.81,97.07
1/1/2015 18:00,0,-9.1,1.76,-55.66,58.29,332.9,1.39,96.97
1/1/2015 19:00,0,-6.2,0,-63.55,59.97,322.6,1.97,96.88
1/1/2015 20:00,0,-8.3,0,-61.4,61.78,345.4,1.88,96.8
1/1/2015 21:00,0,-8,0,-65.28,66.47,339.4,2.95,96.73
1/1/2015 22:00,0,-10.1,0,-60.72,68.2,349.7,3.35,96.66
1/1/2015 23:00,0.2,-10.8,0,-58.67,69.47,351.3,3.62,96.59
1/2/2015 0:00,0.3,-9.9,0,-58.72,68.69,347.8,3.61,96.54
1/2/2015 1:00,0.5,-10,0,-58.82,74.7,342.4,3.62,96.49
1/2/2015 2:00,0.8,-9.3,0,-58.71,76.03,344.2,2.51,96.43
1/2/2015 3:00,1.1,-9.8,0,-57.44,76.07,347.6,3.11,96.36
1/2/2015 4:00,1.5,-10.1,0,-58.56,78.52,348.7,3.74,96.27
1/2/2015 5:00,1.5,-11.3,0,-55.99,81.7,350.2,3.89,96.17
1/2/2015 6:00,1.5,-8.9,0,-64.52,86.2,352.4,4.57,96.05
1/2/2015 7:00,1.5,-8.1,0,-66.78,89.5,349.8,4.66,95.91
1/2/2015 8:00,1.5,-7.8,0,-65.86,91.9,342.9,4.61,95.76
1/2/2015 9:00,1.6,-7,19.05,-61.88,90.8,346.4,4.64,95.6
1/2/2015 10:00,1.8,-6.7,167.1,9.4,88.7,351.4,4.09,95.43
1/2/2015 11:00,2,-6,332,93.7,83.3,350.9,3.53,95.28
1/2/2015 12:00,2.1,-6.6,410.9,77.5,79.97,347.9,4.19,95.15
1/2/2015 13:00,2.3,-7,476.9,89.4,80,348.5,4.07,95.04
1/2/2015 14:00,2.4,-7.6,328.9,45.3,79.1,353.1,4.08,94.94
1/2/2015 15:00,2.4,-7.7,175,21.2,82.6,351.9,4.31,94.86
1/2/2015 16:00,2.4,-7.8,127.4,11.4,83,352.1,4.03,94.79
1/2/2015 17:00,2.4,-8.2,37.05,-17.64,87.5,350.2,4.7,94.73
1/2/2015 18:00,2.4,-8,2.37,0.19,88.6,352,4.74,94.66
1/2/2015 19:00,2.5,-8.3,0,1.9,87.3,352.4,5.03,94.58
1/2/2015 20:00,2.6,-8,0,-8.94,91.9,353.8,4.17,94.5
1/2/2015 21:00,2.7,-8.5,0,-47.82,89.5,350.9,4.85,94.41
1/2/2015 22:00,2.8,-8.5,0,-34.87,88.5,352.1,4.52,94.33
1/2/2015 23:00,2.9,-7.5,0,-22.69,88.7,349,3.41,94.27
1/3/2015 0:00,2.9,-8,0,-23.67,84.1,348.1,4,94.24
1/3/2015 1:00,3.9,-7.6,0,-3.7,87,352.3,3.87,94.22
1/3/2015 2:00,4.8,-7.6,0,-10.95,89.5,355.3,3.32,94.19
1/3/2015 3:00,5.8,-8.2,0,-5.1,89.8,355.2,3.62,94.15
1/3/2015 4:00,5.8,-8.9,0,-7.82,90.4,356.1,4.42,94.1
1/3/2015 5:00,5.8,-8.5,0,-8.4,93.3,356.1,4.47,94.02
1/3/2015 6:00,5.8,-7.4,0,-11.1,95.6,4.8,3,93.92
1/3/2015 7:00,5.8,-7.3,0,-4.6,95.1,6.6,3.29,93.81
1/3/2015 8:00,5.8,-7.7,0,-2.1,95.3,3.3,3.16,93.68
1/3/2015 9:00,5.8,-7.3,21.27,-23.19,94.7,2.8,3.16,93.54
1/3/2015 10:00,5.8,-7.2,124.1,-1.41,92.7,6.6,2.13,93.4
1/3/2015 11:00,5.8,-6.7,322.3,85.3,89.7,12.8,1.43,93.26
1/3/2015 12:00,5.8,-6.3,423.2,80.4,86.5,9.3,1.37,93.13
1/3/2015 13:00,5.8,-5.6,432.6,49,76,7.3,1.73,93.04
1/3/2015 14:00,5.8,-5.1,437.6,42.1,68.06,350.7,1.83,92.97
1/3/2015 15:00,5.8,-5.4,369,35.7,70.3,346,2.15,92.94
1/3/2015 16:00,5.8,-5.9,99.2,-55.26,74.49,355.8,1.62,92.95
1/3/2015 17:00,5.8,-6.3,46.02,-21.75,80.2,349.7,2.77,92.98
1/3/2015 18:00,5.8,-6.7,2.27,-23.76,84.4,345.4,2.28,93.03
1/3/2015 19:00,5.8,-6.7,0,-40.62,83.9,347.3,2.14,93.09
1/3/2015 20:00,5.8,-6.7,0,-27.54,87.8,340.8,2.98,93.15
1/3/2015 21:00,5.8,-6.7,0,-10.51,88.7,337,3.14,93.19
1/3/2015 22:00,5.8,-6.6,0,-9.9,92.3,332.8,2.78,93.2
1/3/2015 23:00,5.9,-6.2,0,-2.9,96.6,335.9,2.85,93.2
1/4/2015 0:00,5.9,-5.8,0,-7,96.8,331,2.37,93.18
1/4/2015 1:00,6,-5.7,0,-19,94.3,332.5,2.86,93.14
1/4/2015 2:00,6.1,-5.9,0,-4.7,93.3,298.3,1.33,93.09
1/4/2015 3:00,6.3,-5.3,0,-13.56,89.8,345.5,1.72,93.03
1/4/2015 4:00,6.4,-5,0,-19.71,87.2,346.7,2.17,92.97
1/4/2015 5:00,6.4,-4.8,0,-21.39,84.8,348.7,2.06,92.92
1/4/2015 6:00,6.4,-4.6,0,-18.48,82.2,336.6,2.29,92.91
1/4/2015 7:00,6.4,-5,0,-19.93,83.4,332.2,3.1,92.94
1/4/2015 8:00,6.4,-5.1,0,-6.9,84.8,339.8,2.99,93
1/4/2015 9:00,6.4,-5.4,4.2,-2.29,91.7,348.5,2.13,93.08
1/4/2015 10:00,6.4,-4.6,37.31,5.28,97.8,346.4,2.87,93.16
1/4/2015 11:00,6.5,-4,71.24,9.68,97.6,343.5,3.28,93.26
1/4/2015 12:00,6.5,-4.5,54.43,5.59,96.8,349.3,2.43,93.38
1/4/2015 13:00,6.5,-4.9,69.56,7.89,96.1,347.2,2.9,93.5
1/4/2015 14:00,6.5,-4.2,60.19,6.2,97,349.4,2.84,93.6
1/4/2015 15:00,6.5,-3.9,65.44,7.69,97.5,347.4,3.19,93.69
1/4/2015 16:00,6.5,-3.9,48.16,4.95,97.6,342.3,3.85,93.73
1/4/2015 17:00,6.6,-3.9,26.93,3.14,97.9,343,3.9,93.68
1/4/2015 18:00,6.7,-3.4,1.09,-0.12,98.7,341.2,3.68,93.55
1/4/2015 19:00,6.8,-3.2,0,-1,98.8,341.2,3.26,93.39
1/4/2015 20:00,7.1,-3.2,0,-0.71,98.8,338.6,2.81,93.21
1/4/2015 21:00,7.7,-2.8,0.11,-0.16,99.3,343.9,3.47,93.04
1/4/2015 22:00,8.7,-2.2,0.1,-0.19,99.7,344.1,5.04,92.9
1/4/2015 23:00,9.1,-1.7,0,-0.61,100,339.2,4.68,92.85
1/5/2015 0:00,9.2,-1.5,0,-2.36,100,342.3,3.7,92.92
1/5/2015 1:00,9.3,-1.5,0,-2.93,100,325.6,3.01,93.08
1/5/2015 2:00,9.4,-1.5,0,-5.67,100,322.9,4.03,93.32
1/5/2015 3:00,9.6,-1.5,0.17,-5.37,100,340.1,5.5,93.63
1/5/2015 4:00,9.7,-1.6,0.42,-4.97,99.9,335.8,6.83,93.96
1/5/2015 5:00,10,-1.5,0,-3.4,99.5,334.3,7.19,94.3
1/5/2015 6:00,10.3,-1.6,0,-1.8,98.6,339,6.76,94.63
1/5/2015 7:00,10.6,-1.9,0,-2.46,99.3,339.6,6.87,94.94
1/5/2015 8:00,10.9,-2.1,0,-1.46,99.7,338.3,7.11,95.21
1/5/2015 9:00,11,-1.8,1.36,-3.73,96.2,341.5,5.91,95.45
1/5/2015 10:00,11.2,-1.8,17.2,-1.59,96.8,336.3,6,95.63
1/5/2015 11:00,11.3,-1.5,49.62,5.22,95.1,339.9,6.02,95.77
1/5/2015 12:00,11.8,-1.8,70.55,8.36,96.5,338.2,5.27,95.84
1/5/2015 13:00,12.3,-1.9,53.03,7.43,99.7,341,5.57,95.9
1/5/2015 14:00,12.8,-1.6,71.28,12.92,99.9,348.6,4.85,95.95
1/5/2015 15:00,12.9,-1.3,84.3,17.19,100,349.2,4.53,96.01
1/5/2015 16:00,12.9,-1.4,87.5,19.33,99.9,348.6,4.69,96.09
1/5/2015 17:00,12.9,-1.5,21.3,2.01,98.4,350,4.27,96.2
1/5/2015 18:00,12.9,-1.2,0.4,-1.63,93.5,349.8,4.31,96.31
1/5/2015 19:00,13,-1,0,-0.54,92.7,358.6,2.63,96.41
1/5/2015 20:00,13.1,0.5,0,-13.44,98.3,359.3,2.39,96.48
1/5/2015 21:00,13.2,0.4,0,-37.53,99.8,351.4,3.41,96.51
1/5/2015 22:00,13.2,0.6,0,-41.31,97.9,353.6,3.22,96.48
1/5/2015 23:00,14,2.2,0,-12.35,77.43,0.9,2.06,96.4
1/6/2015 0:00,14.1,3.9,0.16,-15.64,54.64,7.7,1.63,96.3
1/6/2015 1:00,14.2,2.9,0,-24.7,62.31,348.8,2.34,96.19
1/6/2015 2:00,14.3,3.2,0,-28.9,60.33,345.6,2.33,96.09
1/6/2015 3:00,14.4,1.8,0,-33.86,80.3,348.8,3.82,95.98
1/6/2015 4:00,14.4,2.8,0,-42.17,62.39,353.7,2.78,95.85
1/6/2015 5:00,14.4,3.6,0,-66.45,55.67,347.9,3.43,95.67
1/6/2015 6:00,14.4,4.1,0,-50.04,50.38,346.2,3.16,95.44
1/6/2015 7:00,14.4,4.2,0,-32.34,56.26,346.3,2.85,95.19
1/6/2015 8:00,14.4,4.8,0,-32.03,58.52,321.9,2.22,94.9
1/6/2015 9:00,14.4,5.6,6.09,-32.2,70.16,271.5,1.79,94.59
1/6/2015 10:00,14.4,6.1,60.77,-18.53,70.71,249.5,1.21,94.26
1/6/2015 11:00,14.4,7.1,152.4,-10.5,64.47,233.2,1.39,93.92
1/6/2015 12:00,14.4,8.8,420.3,79.2,58.16,250.9,1.3,93.56
1/6/2015 13:00,14.4,9.4,505.6,108.1,58.66,257.8,1.51,93.19
1/6/2015 14:00,14.4,8.6,230.5,16,61.55,253.8,1.21,92.83
1/6/2015 15:00,14.4,8.3,161.1,4.6,59.81,210.1,1.06,92.49
1/6/2015 16:00,14.4,8.6,105.7,-21.23,59.45,235.3,0.93,92.2
1/6/2015 17:00,14.4,7.2,48.28,-39.91,58.51,142,1.25,91.96
1/6/2015 18:00,14.4,7.2,1.75,-49.04,61.6,170.3,1.45,91.79
1/6/2015 19:00,14.4,6.5,0,-60.47,64.59,155.4,1.9,91.7
1/6/2015 20:00,14.4,6.8,0,-68.84,61.95,155,1.74,91.67
1/6/2015 21:00,14.4,5.5,0,-66,67.73,159.7,2.34,91.66
1/6/2015 22:00,14.4,5.5,0,-70.97,70.36,160.4,2.11,91.64
1/6/2015 23:00,14.4,6.3,0,-70.23,69.82,155.1,2.08,91.6
1/7/2015 0:00,14.4,6.5,0,-72.65,69.95,159.6,2,91.54
1/7/2015 1:00,14.4,6.2,0,-72.11,72.26,153.3,2,91.47
1/7/2015 2:00,14.5,6,0,-73.29,73.19,156.2,2.07,91.37
1/7/2015 3:00,14.5,6,0,-74.86,72.78,158.4,2.23,91.24
1/7/2015 4:00,14.5,5.9,0,-74.91,72.96,155.4,2.43,91.13
1/7/2015 5:00,14.5,5.8,0,-74.95,73.28,160.5,2.34,91.1
1/7/2015 6:00,14.5,5.9,0,-74.8,72.55,164.5,1.95,91.14
1/7/2015 7:00,14.5,5.5,0,-74.6,74.35,168.4,2.02,91.26
1/7/2015 8:00,14.5,5.8,0,-75.2,72.12,167.9,2.03,91.47
1/7/2015 9:00,14.5,6,12.26,-75.83,71.29,163.9,2.37,91.78
1/7/2015 10:00,14.5,7.1,118,-46.5,64.45,164.4,2.35,92.21
1/7/2015 11:00,14.5,7.9,316,77.1,58.52,161.1,2.62,92.77
1/7/2015 12:00,14.5,8.5,412.4,92.4,53.45,164.7,2.55,93.42
1/7/2015 13:00,14.5,9.1,460.5,101.5,50.5,161.3,2.47,94.11
1/7/2015 14:00,14.5,9.5,450.2,86.5,48.16,158.5,2.37,94.78
1/7/2015 15:00,14.5,9.1,380.6,70.5,49.38,171.1,2.11,95.37
1/7/2015 16:00,14.5,7.8,112.7,-23.71,54.28,167.7,2.08,95.85
1/7/2015 17:00,14.5,6.6,38.11,-82.67,57.41,173.5,2.07,96.22
1/7/2015 18:00,14.5,6.2,0.49,-86.02,58.52,225.5,2.02,96.48
1/7/2015 19:00,14.5,5.9,0,-84.29,61,311.5,2.25,96.65
1/7/2015 20:00,14.5,5.2,0,-82.26,63.37,339,1.39,96.72
1/7/2015 21:00,14.5,4.9,0,-82.03,65.4,352.5,2.49,96.71
1/7/2015 22:00,14.5,5.3,0,-78.23,66.58,14.8,0.82,96.66
1/7/2015 23:00,14.5,5.3,0,-73.03,65.35,99.5,0.47,96.62
1/8/2015 0:00,14.5,5.8,0,-77.52,62.65,26.8,0.85,96.58
1/8/2015 1:00,14.5,5.5,0,-75.82,62.89,30.6,0.43,96.49
1/8/2015 2:00,14.5,5.9,0,-77.46,58.68,349.8,0.86,96.37
1/8/2015 3:00,14.5,5.9,0,-85.81,55.77,351.7,2.07,96.2
1/8/2015 4:00,14.5,6,0,-88.11,57.76,344.8,1.34,96.01
1/8/2015 5:00,14.5,6,0,-86.73,56.48,333.8,1.23,95.84
1/8/2015 6:00,14.5,5.9,0,-91.03,55.35,341,1.9,95.72
1/8/2015 7:00,14.5,6.3,0,-89.78,53.22,306.4,0.97,95.64
1/8/2015 8:00,14.5,6.9,0,-88.33,51.69,342,1.12,95.58
1/8/2015 9:00,14.5,6.7,16.57,-81.86,51.19,234.1,0.77,95.55
1/8/2015 10:00,14.5,7.3,136.4,-34.9,45.08,35.4,0.71,95.54
1/8/2015 11:00,14.5,8.5,278.5,36.6,39.18,24.5,0.91,95.58
1/8/2015 12:00,14.5,9.2,443.6,81.3,38.47,354.9,0.99,95.7
1/8/2015 13:00,14.5,8.9,480.8,90,42.93,358.2,1,95.88
1/8/2015 14:00,14.5,8.7,474.8,81.2,43.96,346.2,1.34,96.1
1/8/2015 15:00,14.5,8.4,404.1,66,45.55,345.6,1.32,96.32
1/8/2015 16:00,14.5,7.7,126.2,-29.55,43.09,358.9,1.52,96.49
1/8/2015 17:00,14.5,7.2,33.41,-105.53,39.57,359.5,1.67,96.59
1/8/2015 18:00,14.5,6.2,0,-102.82,36.39,11.2,1.21,96.6
1/8/2015 19:00,14.5,6,0,-100.42,41.31,8.2,1.68,96.55
1/8/2015 20:00,14.5,5.9,0,-101.08,43.57,19.1,1.5,96.44
1/8/2015 21:00,14.5,5.6,0,-100.6,44.31,17,1.4,96.3
1/8/2015 22:00,14.5,4.8,0,-94.26,46.69,51.3,0.68,96.11
1/8/2015 23:00,14.5,4.6,0,-88.62,46.31,103.9,0.57,95.88
1/9/2015 0:00,14.5,3.5,0,-86.59,54.15,75.5,0.88,95.62
1/9/2015 1:00,14.5,-0.1,0,-83.4,90.3,161.8,2.36,95.33
1/9/2015 2:00,14.5,0.2,0,-87.76,84.8,166.8,2.43,95.01
1/9/2015 3:00,14.5,-0.4,0,-88.79,87.1,164.2,2.51,94.67
1/9/2015 4:00,14.5,-1.5,0,-80,93.5,157.9,2.86,94.3
1/9/2015 5:00,14.5,-1.4,0,-76.85,90.9,158.3,2.81,93.89
1/9/2015 6:00,14.5,-2,0,-77.6,93.1,157,2.85,93.44
1/9/2015 7:00,14.5,-1.4,0,-73.48,86.9,162.5,2.5,92.98
1/9/2015 8:00,14.5,-1.3,0,-69.95,82.4,161.7,2.42,92.53
1/9/2015 9:00,14.5,-0.9,18.25,-69.69,77.3,161.9,2.34,92.14
1/9/2015 10:00,14.5,0.6,138.5,-39.7,68.68,163.7,2.07,91.82
1/9/2015 11:00,14.5,1.2,275,30.4,66.91,162.6,2.29,91.58
1/9/2015 12:00,14.5,1.6,331,35.6,65.38,161,2.26,91.42
1/9/2015 13:00,14.5,1.9,368.6,47.2,63.98,163.8,2.06,91.35
1/9/2015 14:00,14.5,2.8,420,55.9,57.88,158.9,2,91.37
1/9/2015 15:00,14.5,2.5,352.2,37.1,58.24,161.1,1.97,91.47
1/9/2015 16:00,14.5,1.9,148.5,-31.5,60.64,160.6,1.69,91.64
1/9/2015 17:00,14.5,0.9,47.45,-73.86,62.04,161.7,1.53,91.87
1/9/2015 18:00,14.5,0.2,1.77,-74.39,63.82,164.2,1.53,92.13
1/9/2015 19:00,14.5,0.3,0,-58.8,63.81,166,1.59,92.37
1/9/2015 20:00,14.5,0.5,0,-49,63.17,168.6,1.61,92.58
1/9/2015 21:00,14.5,0.4,0,-45.4,63.01,166.7,1.59,92.73
1/9/2015 22:00,14.5,0.1,0,-53.23,65.75,157.9,1.31,92.81
1/9/2015 23:00,14.5,-0.5,0,-66.28,68.27,160.9,1.43,92.81
1/10/2015 0:00,14.5,-0.7,0,-57.32,69.48,159.6,1.64,92.77
1/10/2015 1:00,14.5,0.1,0,-48.58,73.23,182,0.95,92.7
1/10/2015 2:00,14.5,-1,0,-56.5,73.01,162.2,1.46,92.6
1/10/2015 3:00,14.5,-0.7,0,-50.32,77.46,154.4,1.16,92.47
1/10/2015 4:00,14.5,-0.1,0,-46.04,92.5,160.9,0.59,92.31
1/10/2015 5:00,14.5,0.1,0,-30.66,95.7,351.6,1.61,92.14
1/10/2015 6:00,14.5,-0.8,0,-26.22,96.2,346.5,2.82,91.96
1/10/2015 7:00,14.5,-0.5,0,-27.54,99.5,356.7,1.07,91.77
1/10/2015 8:00,14.5,-0.5,0,-18.04,100,348.1,1.02,91.58
1/10/2015 9:00,14.5,-0.3,7.74,-24.68,99,333.8,0.69,91.4
1/10/2015 10:00,14.5,-0.4,38.85,-25.86,98.8,340.9,1.22,91.25
1/10/2015 11:00,14.5,-0.5,199.1,30.4,98.2,348.3,1.47,91.14
1/10/2015 12:00,14.5,0.5,251.2,31.2,90.7,351.9,0.92,91.07
1/10/2015 13:00,14.5,0.8,420.1,91.8,84.3,339.9,1.56,91.05
1/10/2015 14:00,14.5,-0.7,210.9,48.1,95.3,342.7,2.69,91.08
1/10/2015 15:00,14.5,-0.4,151.9,15.3,93.3,344.1,3.2,91.15
1/10/2015 16:00,14.5,-0.4,126.7,-12.8,90.5,346.2,3.67,91.24
1/10/2015 17:00,14.5,-0.5,54.07,-23.71,88.3,353.5,3.39,91.3
1/10/2015 18:00,14.5,-0.8,2.83,-31.18,88.9,351.7,3.24,91.36
1/10/2015 19:00,14.5,-1.4,0,-21.87,92.4,352.4,3.54,91.41
1/10/2015 20:00,14.5,-0.3,0,-24.79,80.7,345.1,3.48,91.45
1/10/2015 21:00,14.5,-0.6,0,-26.77,88.4,349.9,3.59,91.49
1/10/2015 22:00,14.5,-0.7,0,-31.69,91.6,340.9,3.48,91.52
1/10/2015 23:00,14.5,-1,0,-61.05,95.8,337,3.15,91.57
1/11/2015 0:00,14.5,-0.8,0,-29.79,98.5,339.2,3.12,91.66
1/11/2015 1:00,14.5,-0.4,0,-28.39,98,332.7,2.89,91.82
1/11/2015 2:00,14.5,-0.6,0,-9.92,100,340,3.17,92.05
1/11/2015 3:00,14.7,-0.9,0,-0.6,100,338.2,3.21,92.31
1/11/2015 4:00,15.6,-1,0,-0.6,100,336.3,2.53,92.61
1/11/2015 5:00,16.4,-1.1,0,-0.5,100,340.8,2.25,92.96
1/11/2015 6:00,16.5,-1.2,0,-0.5,100,340.5,2.6,93.33
1/11/2015 7:00,17.4,-1.2,0,-0.5,100,348.2,2.3,93.71
1/11/2015 8:00,18.8,-1.4,0,-0.8,100,353.1,2.81,94.05
1/11/2015 9:00,18.9,-1.5,11.46,-3.06,100,352.2,2.24,94.32
1/11/2015 10:00,18.9,-0.9,69.92,-0.46,100,349.4,1.26,94.49
1/11/2015 11:00,18.9,-0.6,158.7,11.2,100,353.3,0.77,94.54
1/11/2015 12:00,18.9,0,266.2,31.7,100,335.2,0.87,94.51
1/11/2015 13:00,18.9,0.2,280,47.8,100,319.4,0.92,94.43
1/11/2015 14:00,18.9,0.2,214.2,39.8,100,310.1,1.13,94.29
1/11/2015 15:00,18.9,0.2,207.8,42.7,100,289.9,0.8,94.09
1/11/2015 16:00,18.9,-0.4,108.5,20.3,100,323.8,1.41,93.86
1/11/2015 17:00,18.9,-0.7,58.51,0.84,100,335.7,1.49,93.63
1/11/2015 18:00,18.9,-0.9,3.08,-44.88,100,319.1,1.84,93.44
1/11/2015 19:00,18.9,-1,0,-28.52,100,298.9,1.4,93.35
1/11/2015 20:00,18.9,-1.1,0,-41.66,100,297,1.13,93.42
1/11/2015 21:00,18.9,-1.4,0,-25.96,98.6,264.5,0.99,93.62
1/11/2015 22:00,18.9,-1.4,0,-20.88,98.5,223.3,1.43,93.92
1/11/2015 23:00,18.9,-1.4,0,-14.81,99.6,226.4,1.61,94.32
1/12/2015 0:00,19,-1.6,0,-6.83,100,270.9,1.29,94.82
1/12/2015 1:00,19.4,-2,0,-3.9,100,318.6,1.74,95.36
1/12/2015 2:00,20.1,-1.9,0,-3.4,100,344.3,1.53,95.91
1/12/2015 3:00,20.9,-1.9,0,-1.9,100,351.8,1.46,96.42
1/12/2015 4:00,21.6,-2.1,0,-1.6,100,342.1,2.16,96.86
1/12/2015 5:00,22,-2.5,0,-1.6,100,353.8,2.74,97.2
1/12/2015 6:00,22.1,-2.8,0,-1.5,100,351.7,2.85,97.43
1/12/2015 7:00,22.1,-2.9,0,-1.4,100,358.5,2.72,97.54
1/12/2015 8:00,22.2,-2.9,0,-1.3,99.9,358.6,2.24,97.53
1/12/2015 9:00,22.2,-3,6.63,-3.63,99.8,0.7,2.5,97.4
1/12/2015 10:00,22.2,-2.9,56,0.74,99.6,355.2,2.7,97.22
1/12/2015 11:00,22.2,-2.7,117.8,14.4,99.4,0.5,2.47,97.04
1/12/2015 12:00,22.2,-2.7,151.3,21.8,99,2.7,1.93,96.87
1/12/2015 13:00,22.2,-2.6,240.4,36.1,98.5,3.9,1.86,96.69
1/12/2015 14:00,22.2,-2.7,275.1,36.3,97.7,7.2,2.08,96.53
1/12/2015 15:00,22.2,-2.9,265,34.7,97.5,7.3,2.8,96.39
1/12/2015 16:00,22.2,-2.8,144.4,-3.6,98.6,3.6,3.06,96.29
1/12/2015 17:00,22.2,-3.2,66.79,-6.65,98.9,1.5,4.16,96.23
1/12/2015 18:00,22.2,-3.7,6.64,-25.37,98.9,2.1,4.46,96.2
1/12/2015 19:00,22.2,-4.1,0,-26.95,98.7,3.5,4.67,96.21
1/12/2015 20:00,22.2,-3.1,0,-64.15,99.6,354,4.23,96.23
1/12/2015 21:00,22.2,-3.3,0,-86.81,99.3,358.1,3.1,96.26
1/12/2015 22:00,22.2,-3.2,0,-87.01,99.3,355.2,2.6,96.29
1/12/2015 23:00,22.2,-3.4,0,-89,98.7,3.5,2.69,96.31
1/13/2015 0:00,22.2,-3.7,0,-88.62,97.1,6.7,1.98,96.33
1/13/2015 1:00,22.2,-3.9,0,-88.8,94.2,12.4,2.2,96.35
1/13/2015 2:00,22.2,-3.8,0,-88.15,90.7,13.6,2.02,96.37
1/13/2015 3:00,22.2,-3.8,0,-87.81,87.2,21.7,2.38,96.39
1/13/2015 4:00,22.2,-3.9,0,-86.61,85.3,15.3,1.8,96.36
1/13/2015 5:00,22.2,-3.6,0,-86.87,81.8,11.6,1.86,96.26
1/13/2015 6:00,22.2,-3.3,0,-91.85,76.54,7.4,2.26,96.05
1/13/2015 7:00,22.2,-3.6,0,-96.98,72.44,5.3,2.11,95.75
1/13/2015 8:00,22.2,-3.4,0,-99.72,69.11,7.4,1.94,95.38
1/13/2015 9:00,22.2,-3,12.84,-103.28,60.79,3.9,3.22,94.97
1/13/2015 10:00,22.2,-2.4,141.5,-50.9,51.32,2.7,1.77,94.56
1/13/2015 11:00,22.2,-1.5,346.6,55.2,43.66,2.3,2.06,94.2
1/13/2015 12:00,22.2,-0.4,452,63.8,40.01,10.5,1.7,93.94
1/13/2015 13:00,22.2,0.4,503.3,67,37.22,21.6,1.77,93.8
1/13/2015 14:00,22.2,0.6,496.7,55.3,33.84,10.4,1.91,93.79
1/13/2015 15:00,22.2,-0.1,423.7,42.6,45.04,351.9,1.81,93.88
1/13/2015 16:00,22.2,-1.7,148.1,-13.09,53.89,341.5,2.22,94.05
1/13/2015 17:00,22.2,-1.9,44.57,-98.69,51,347.9,2.43,94.29
1/13/2015 18:00,22.2,-2.3,2.99,-96.35,51.12,350.5,3.35,94.56
1/13/2015 19:00,22.2,-2.5,0,-92.64,55.15,349.1,2.92,94.84
1/13/2015 20:00,22.2,-1.6,0,-92.88,47.75,343.9,2.49,95.11
1/13/2015 21:00,22.2,-1.7,0,-88.4,49.74,347.5,1.14,95.34
1/13/2015 22:00,22.2,-1.9,0,-86.36,53.4,359.4,1.05,95.48
1/13/2015 23:00,22.2,-1.6,0,-92.43,53.03,329.3,2.5,95.53
1/14/2015 0:00,22.2,-1.5,0,-95.63,49.7,5.2,2.72,95.53
1/14/2015 1:00,22.2,-1.3,0,-92.5,43.38,328.3,2.07,95.51
1/14/2015 2:00,22.2,-1.7,0,-92.2,47.96,332.5,2.1,95.44
1/14/2015 3:00,22.2,-2,0,-84.97,48.42,301.1,1.09,95.32
1/14/2015 4:00,22.2,-1.8,0,-90.51,46.68,338,1.83,95.18
1/14/2015 5:00,22.2,-1.8,0,-87.38,43.6,307,1.22,95.03
1/14/2015 6:00,22.2,-1.3,0,-86.82,38.56,343.1,1.99,94.91
1/14/2015 7:00,22.2,-2.5,0,-83.7,49.41,349.2,2.94,94.81
1/14/2015 8:00,22.2,-2.3,0,-82.44,45.24,318.4,1.82,94.71
1/14/2015 9:00,22.2,-2.5,14.22,-79.54,44.43,336.6,2.26,94.61
1/14/2015 10:00,22.2,-1.9,159.9,-29.2,43.68,340.5,1.99,94.5
1/14/2015 11:00,22.2,0.1,304.3,38.6,38.84,330,1.18,94.38
1/14/2015 12:00,22.2,0,459.8,74.3,50.23,137.6,1.13,94.26
1/14/2015 13:00,22.2,1.5,511.2,72.3,47.99,183.5,0.74,94.13
1/14/2015 14:00,22.2,-0.8,503.2,66,57.84,347.4,1.01,94.03
1/14/2015 15:00,22.2,-0.9,429.4,48.8,60.44,346.5,0.86,93.96
1/14/2015 16:00,22.2,-0.8,151.6,-8.94,61.19,141.1,0.85,93.89
1/14/2015 17:00,22.2,-0.9,45.07,-91.14,60.84,20.8,0.8,93.82
1/14/2015 18:00,22.2,-1.7,2.89,-79.41,50.45,135.3,0.88,93.76
1/14/2015 19:00,22.2,-0.2,0,-76.13,38.69,77.2,0.52,93.71
1/14/2015 20:00,22.2,-3.2,0,-79.8,59.92,145.5,2.15,93.67
1/14/2015 21:00,22.2,-4.1,0,-80.83,68.85,158.6,2.82,93.64
1/14/2015 22:00,22.2,-2.6,0,-80.58,52.11,153,2.12,93.62
1/14/2015 23:00,22.2,-3.5,0,-80,60.08,158.7,2.4,93.61
1/15/2015 0:00,22.2,-3.7,0,-80.2,58.8,164,2.73,93.63
1/15/2015 1:00,22.2,-3.4,0,-76.38,54.37,155.9,2.39,93.63
1/15/2015 2:00,22.2,-3.5,0,-76.14,53.51,160.2,3.04,93.62
1/15/2015 3:00,22.2,-3.9,0,-76.01,57.59,156.8,3.3,93.59
1/15/2015 4:00,22.2,-3.6,0,-79.37,53.47,161.1,3.03,93.56
1/15/2015 5:00,22.2,-3.5,0,-83.57,47.85,157.4,2.89,93.54
1/15/2015 6:00,22.2,-3,0,-86.19,42.63,160.1,3.2,93.48
1/15/2015 7:00,22.2,-3.2,0,-86,46.51,160.2,3.22,93.42
1/15/2015 8:00,22.2,-3.3,0,-69.29,48.54,161,3.37,93.36
1/15/2015 9:00,22.2,-3.1,11.28,-83.4,45.15,164.4,3.09,93.3
1/15/2015 10:00,22.2,-2.4,134.7,-58,44.33,163.7,3.62,93.25
1/15/2015 11:00,22.2,-1.5,348.2,50.8,49.26,170,3.23,93.21
1/15/2015 12:00,22.2,-1.2,392.8,46.8,52.89,172.7,3.04,93.17
1/15/2015 13:00,22.2,-1,443.3,56,51.79,168.6,2.62,93.13
1/15/2015 14:00,22.2,-1.6,217.6,5.8,53.91,169.7,2.52,93.09
1/15/2015 15:00,22.2,-2.7,95.4,-3.67,57.43,167.4,2.55,93.07
1/15/2015 16:00,22.2,-2.8,59.97,-4.09,56.97,221.8,2.64,93.07
1/15/2015 17:00,22.2,-1.3,20.19,-5.3,48.03,300,1.51,93.1
1/15/2015 18:00,22.4,-1.6,0.92,-1.14,73.2,213.9,1.51,93.13
1/15/2015 19:00,22.4,-1.4,0.13,-6.72,88.8,172.6,1.52,93.15
1/15/2015 20:00,22.4,-3.9,0,-4,85.1,152.8,2.59,93.16
1/15/2015 21:00,22.5,-3,0,-11.19,92.3,161.8,2.37,93.17
1/15/2015 22:00,22.5,-3.2,0,-12.01,84.1,166.4,2.67,93.23
1/15/2015 23:00,22.5,-2.6,0,-14.38,89.1,163.5,2.87,93.37
1/16/2015 0:00,22.5,-2.3,0,-13.27,81.2,165.8,2.79,93.62
1/16/2015 1:00,22.5,-2.1,0,-8.7,73.94,154.7,2.81,94
1/16/2015 2:00,22.5,-1.8,0,-7.9,68.64,161.2,2.71,94.52
1/16/2015 3:00,22.5,-1.2,0,-8.73,61.41,188.1,2.48,95.2
1/16/2015 4:00,23,-2.1,0,-4.4,76.04,218.1,2.78,96.03
1/16/2015 5:00,24.8,-3.1,0.08,-0.12,98.6,178.3,2.48,96.98
1/16/2015 6:00,27.7,-2.6,0.1,0.48,99.3,187.6,2.75,98.02
1/16/2015 7:00,29.9,-1.6,0.04,-0.22,100,245,2.46,99.08
1/16/2015 8:00,31,-1.7,0,-0.5,100,223,2.35,100.12
1/16/2015 9:00,32.4,-1.8,3.24,-0.24,100,254.9,2.23,101.12
1/16/2015 10:00,33.6,-1.8,21.47,1.64,100,318.1,3.1,102.06
1/16/2015 11:00,34.9,-2,36.65,3.01,100,343.8,4.53,102.91
1/16/2015 12:00,35.6,-2,55.11,4.79,99.9,337.1,5.19,103.66
1/16/2015 13:00,35.7,-1.7,94.4,10.4,99.9,0,NAN,104.29
1/16/2015 14:00,35.7,-1.5,100.3,11.4,100,0,NAN,104.78
1/16/2015 15:00,35.8,-1.7,69.23,6.6,100,0,NAN,105.16
1/16/2015 16:00,36.1,-1.8,36.21,3.07,100,0,NAN,105.46
1/16/2015 17:00,36.1,-1.9,28.34,2.41,100,0,NAN,105.68
1/16/2015 18:00,36.1,-2.1,4.79,-1,100,0,NAN,105.84
1/16/2015 19:00,36.1,-2.7,0,-2.2,99.7,0,NAN,105.94
1/16/2015 20:00,36.1,-3.4,0,-58.05,99,0,NAN,106.01
1/16/2015 21:00,36.1,-4.4,0,-82.91,98,0,NAN,106.07
1/16/2015 22:00,36.1,-4.8,0,-79.64,97.6,0,NAN,106.13
1/16/2015 23:00,36.1,-4.9,0,-79.85,97.3,0,NAN,106.17
1/17/2015 0:00,36.1,-5.2,0,-79.24,97,0,NAN,106.19
1/17/2015 1:00,36.1,-5,0,-79.39,97.2,0,NAN,106.18
1/17/2015 2:00,36.1,-5,0,-80.92,97,0,NAN,106.13
1/17/2015 3:00,36.1,-4.8,0,-72.13,97.3,0,NAN,106.06
1/17/2015 4:00,36.1,-4.1,0,-66.04,98.2,0,NAN,105.98
1/17/2015 5:00,36.1,-3.9,0,-55.25,98.4,0,NAN,105.87
1/17/2015 6:00,36.1,-3.6,0,-47.19,98.8,0,NAN,105.76
1/17/2015 7:00,36.1,-4.6,0,-39.43,97,0,NAN,105.63
1/17/2015 8:00,36.1,-4.6,0,-38.74,95.6,0,NAN,105.49
1/17/2015 9:00,36.1,-5,11,-37.15,93.7,0,NAN,105.36
1/17/2015 10:00,36.1,-4.9,43.39,-14.23,90.7,0,NAN,105.27
1/17/2015 11:00,36.1,-4.3,131,12.5,89.7,0,NAN,105.24
1/17/2015 12:00,36.1,-3.8,113.3,12.8,89.8,0,NAN,105.27
1/17/2015 13:00,36.1,-3.5,159.5,26.9,87.4,0,NAN,105.33
1/17/2015 14:00,36.1,-3.2,165.8,36.5,86.6,0,NAN,105.46
1/17/2015 15:00,36.3,-3.2,131.8,30.1,88.2,0,NAN,105.64
1/17/2015 16:00,37.3,-3.2,45.56,11.3,91.4,0,NAN,105.87
1/17/2015 17:00,40,-2.8,16.15,4.58,99.1,0,NAN,106.11